Miscellaneous Local Product
Issued by NWS North Platte, NE

Home | Current Version | Previous Version | Graphics & Text | Print | Product List | Glossary On
Versions: 1 2 3 4 5 6 7 8 9 10 11 12 13 14 15 16 17 18 19 20 21 22 23 24 25 26 27 28 29 30 31 32 33 34 35 36 37 38 39 40 41 42 43 44 45 46 47 48 49 50
000
AXUS43 KLBF 251010
MISLBF


WESTERN AND NORTH CENTRAL NEBRASKA HOURLY WEATHER ROUNDUP
NATIONAL WEATHER SERVICE NORTH PLATTE NE
500 AM CDT WED MAR 25 2015

***STATIONS NOT REPORTING VARIABLES SUCH AS SKY/WEATHER OR
PRESSURE ARE PROVIDED BY THE NEBRASKA DEPARTMENT OF
ROADS...RAWS...AND APRS NETWORKS...AND ARE NOT UNDER
NATIONAL WEATHER SERVICE QUALITY CONTROL***

...OBSERVATIONS IN AND NEAR THE EASTERN PANHANDLE OF NEBRASKA...

CITY           SKY/WX    TMP DP  RH WIND       PRES   REMARKS
PINE RIDGE     CLOUDY    32  25  75 N12       30.04R WCI  23
CHADRON        CLOUDY    35  27  72 NE10      30.04R WCI  27
ALLIANCE       CLOUDY    40  24  53 NE10      29.98R WCI  33
SIDNEY         CLOUDY    42  33  70 NW7       29.98R
WHITECLAY        N/A     30  25  80 W12         N/A  WCI  21
CRESCENT LAKE    N/A     42  27  54 NE10        N/A
BIG SPRINGS      N/A     45  40  82 N3          N/A
$$

...OBSERVATIONS IN NORTH CENTRAL NEBRASKA...

CITY           SKY/WX    TMP DP  RH WIND       PRES   REMARKS
VALENTINE      CLOUDY    34  27  75 NW9       30.01R WCI  27
THEDFORD       CLOUDY    41  33  72 N13       29.96R
AINSWORTH      CLOUDY    36  29  76 NW14      29.97S WCI  27
O`NEILL        CLOUDY    38  34  87 N10       29.95R WCI  31
ORD            CLOUDY    39  38  96 NW8       29.92R FOG     WCI  33
BROKEN BOW     CLOUDY    45  34  65 N9        29.89S
BROWNLEE         N/A     39  32  76 W14         N/A  WCI  31
SPRINGVIEW       N/A     36  29  75 MISG        N/A
BREWSTER         N/A     41  32  71 N15         N/A
ROSE             N/A     38  34  82 SW10        N/A  WCI  32
NEWPORT          N/A     37  32  82 NW13        N/A  WCI  29
SARGENT          N/A     40  37  90 CALM        N/A
COMSTOCK         N/A     40  40  99 CALM        N/A
EWING            N/A     38  36  94 N10         N/A  WCI  31
$$

...OBSERVATIONS IN SOUTHWEST NEBRASKA AND FAR NORTHEAST COLORADO...

CITY           SKY/WX    TMP DP  RH WIND       PRES   REMARKS
WRAY           FAIR      42  35  75 W3        29.95F
HOLYOKE        FAIR      46  36  66 N16G23    29.96R
IMPERIAL         N/A     45  35  68 NW6       29.94F
OGALLALA       CLOUDY    44  38  79 NW12      29.94S
NORTH PLATTE   CLOUDY    49  32  52 NW10      29.92R
MCCOOK         MOCLDY    45  31  58 W6        29.93R
LEXINGTON      CLOUDY    50  32  50 W8        29.89R
PAXTON           N/A     47  37  69 NW3         N/A
SUTHERLAND       N/A     43  32  65 S7          N/A
BRADY            N/A     50  32  49 SW6         N/A
GOTHENBURG       N/A     53  28  38 NW5         N/A
CALLAWAY         N/A     48  30  49 NW9         N/A
$$

...NORTH PLATTE AREA...

CITY           SKY/WX    TMP DP  RH WIND       PRES   REMARKS
AIRPORT        CLOUDY    49  32  52 NW10      29.92R
DOWNTOWN         N/A     49  33  53 NW3G12      N/A
$$

...SOME WEATHER OBSERVATIONS FROM AROUND THE REGION...

CITY           SKY/WX    TMP DP  RH WIND       PRES   REMARKS
DENVER         MOCLDY    39  26  59 SE9       29.94F WCI  33
LARAMIE        CLOUDY    29  22  75 NW9       29.98F WCI  20
CHEYENNE       CLOUDY    35  26  69 NW9       29.98F WCI  28
SCOTTSBLUFF    CLOUDY    41  31  67 NE7       29.98S
RAPID CITY     MOCLDY    31  26  82 N17       30.03R WCI  19
PIERRE         CLOUDY    35  25  66 NW22      29.98R WCI  23
WINNER         CLOUDY    32  25  75 W9        29.99R WCI  24
SIOUX FALLS    PTCLDY    34  29  82 NW18G24   29.89R WCI  23
OMAHA          FOG       36  36 100 SW9       29.92R VSB 1   WCI  29
GRAND ISLAND   CLOUDY    37  37 100 SW7       29.90F FOG     WCI  32
KANSAS CITY    FOG       40  39  97 SW6       29.94R VSB 1
WICHITA        CLOUDY    49  42  77 E5        29.89S
HAYS           MOCLDY    45  25  45 CALM      29.94R
LIBERAL        PTCLDY    48  27  43 E10       29.87F
GOODLAND       CLOUDY    44  32  62 N8        29.97S
$$



USA.gov is the U.S. government's official web portal to all federal, state and local government web resources and services.